"2010-01-06 00:00:00",1567004,10.46,278.8,5.818,1.259,7.525,102.8395,6.548,7.713,33.51,0,109.9,13.42,7.32,240.8
"2010-01-06 00:00:30",1567005,11.53,290.7,4.882,1.463,9.62,102.835,6.536,7.687,33.61,0,109.9,13.42,7.31,252.7
"2010-01-06 00:01:00",1567006,11.16,292.8,6.332,1.088,10.49,102.8246,6.509,7.793,33.83,0,109.9,13.43,7.28,254.8
"2010-01-06 00:01:30",1567007,11.26,295.8,7.317,1.061,11.42,102.8155,6.486,7.842,33.86,0,109.9,13.43,7.26,257.8
"2010-01-06 00:02:00",1567008,12.21,300.5,4.661,0.87,11.2,102.8138,6.482,7.843,33.85,0,109.9,13.43,7.26,262.5
"2010-01-06 00:02:30",1567009,13.14,301.3,5.306,1.388,11.11,102.8139,6.482,7.822,33.96,0,109.9,13.43,7.26,263.3
"2010-01-06 00:03:00",1567010,15.11,301,5.781,0.997,10.79,102.8141,6.483,7.812,33.93,0,109.9,13.43,7.26,263.0
"2010-01-06 00:03:30",1567011,14.86,298.3,4.197,0.817,10.77,102.8107,6.474,7.792,33.89,0,109.9,13.43,7.25,260.3
"2010-01-06 00:04:00",1567012,13.78,296.5,7.568,1.78,10.75,102.7961,6.437,7.789,34.03,0,109.9,13.43,7.21,258.5
"2010-01-06 00:04:30",1567013,11.5,298.5,8.03,1.112,10.46,102.7857,6.41,7.76,34.2,0,109.9,13.43,7.18,260.5
"2010-01-06 00:05:00",1567014,12.75,299,5.023,1.648,10.51,102.784,6.406,7.771,34.25,0,109.9,13.43,7.18,261.0
"2010-01-06 00:05:30",1567015,12.17,294.6,6.025,1.183,10.23,102.7858,6.41,7.751,34.33,0,109.9,13.42,7.18,256.6
"2010-01-06 00:06:00",1567016,12.8,299.2,5.921,0.992,10.2,102.7793,6.394,7.714,34.47,0,109.9,13.43,7.17,261.2
"2010-01-06 00:06:30",1567017,12.24,298.6,9.17,1.635,9.32,102.7615,6.348,7.656,34.55,0,109.9,13.43,7.12,260.6
"2010-01-06 00:07:00",1567018,10.37,298.7,5.686,1.324,7.801,102.755,6.332,7.529,34.55,0,109.9,13.43,7.11,260.7
"2010-01-06 00:07:30",1567019,9.95,288.6,7.87,1.203,7.837,102.7553,6.332,7.495,34.6,0,109.9,13.43,7.11,250.6
"2010-01-06 00:08:00",1567020,11.99,293.8,6.146,1.246,9.9,102.7457,6.308,7.557,34.58,0,109.9,13.43,7.08,255.8
"2010-01-06 00:08:30",1567021,14.25,299.2,4.366,0.973,11.36,102.724,6.252,7.636,34.74,0,109.9,13.43,7.03,261.2
"2010-01-06 00:09:00",1567022,13.72,302.4,5.35,1.434,11.34,102.7229,6.25,7.629,34.69,0,109.9,13.43,7.02,264.4
"2010-01-06 00:09:30",1567023,12.98,301.1,4.749,1.194,11.21,102.7249,6.255,7.605,34.77,0,109.9,13.43,7.03,263.1
"2010-01-06 00:10:00",1567024,13.42,299.4,6.049,0.833,10.76,102.7207,6.244,7.569,34.96,0,109.9,13.43,7.02,261.4
"2010-01-06 00:10:30",1567025,13.27,305.1,4.191,0.922,10.77,102.7038,6.201,7.549,34.75,0,109.9,13.42,6.97,267.1
"2010-01-06 00:11:00",1567026,15.29,305.3,4.544,0.601,10.65,102.6959,6.181,7.539,34.79,0,109.9,13.42,6.95,267.3
"2010-01-06 00:11:30",1567027,14.28,303,4.401,0.92,10.26,102.6971,6.184,7.523,35.06,0,109.9,13.42,6.96,265.0
"2010-01-06 00:12:00",1567028,15.01,305.2,3.855,0.805,10.69,102.6997,6.19,7.521,35.1,0,109.9,13.42,6.96,267.2
"2010-01-06 00:12:30",1567029,14.55,304.2,4.672,0.653,10.58,102.702,6.196,7.487,34.94,0,109.9,13.42,6.97,266.2
"2010-01-06 00:13:00",1567030,14.12,302.1,4.313,0.759,10.45,102.6967,6.183,7.473,35,0,109.9,13.42,6.96,264.1
"2010-01-06 00:13:30",1567031,13.97,303.1,3.802,0.862,10.57,102.683,6.148,7.465,35.05,0,109.9,13.42,6.92,265.1
"2010-01-06 00:14:00",1567032,14.15,303.7,4.754,0.653,10.55,102.6731,6.122,7.454,35.14,0,109.9,13.42,6.90,265.7
"2010-01-06 00:14:30",1567033,14.92,307.8,2.758,0.885,10.6,102.6763,6.13,7.428,35.1,0,109.9,13.42,6.90,269.8
"2010-01-06 00:15:00",1567034,14.95,307.6,3.728,0.664,10.62,102.6765,6.131,7.453,35.09,0,109.9,13.42,6.90,269.6
"2010-01-06 00:15:30",1567035,13.99,306.8,3.711,1.032,10.39,102.6777,6.134,7.414,35.34,0,109.9,13.42,6.91,268.8
"2010-01-06 00:16:00",1567036,14.74,305.9,4.975,0.794,10.51,102.6783,6.136,7.421,35.48,0,109.9,13.43,6.91,267.9
"2010-01-06 00:16:30",1567037,15.04,309.4,2.325,0.836,10.58,102.6783,6.136,7.406,35.42,0,109.9,13.43,6.91,271.4
"2010-01-06 00:17:00",1567038,15.05,309.3,3.964,0.698,10.94,102.6786,6.136,7.398,35.38,0,109.9,13.43,6.91,271.3
"2010-01-06 00:17:30",1567039,14.95,310.1,3.466,0.924,10.49,102.6769,6.132,7.386,35.64,0,109.9,13.43,6.91,272.1
"2010-01-06 00:18:00",1567040,15.31,312.5,2.975,0.96,10.74,102.6687,6.111,7.36,35.65,0,109.9,13.43,6.88,274.5
"2010-01-06 00:18:30",1567041,15.43,311.5,2.929,0.586,10.7,102.6622,6.094,7.377,35.48,0,109.9,13.43,6.87,273.5
"2010-01-06 00:19:00",1567042,15.33,311.4,3.598,0.567,10.72,102.6611,6.092,7.361,35.49,0,109.9,13.43,6.87,273.4
"2010-01-06 00:19:30",1567043,15.2,312.4,1.617,0.762,10.93,102.6543,6.074,7.359,35.54,0,109.9,13.43,6.85,274.4
"2010-01-06 00:20:00",1567044,15.43,312.9,3.137,0.832,10.85,102.6512,6.066,7.362,35.5,0,109.9,13.43,6.84,274.9
"2010-01-06 00:20:30",1567045,15.67,313.5,3.674,0.732,11.07,102.6461,6.053,7.35,35.41,0,109.9,13.43,6.83,275.5
"2010-01-06 00:21:00",1567046,15.75,313.5,2.734,0.775,11.14,102.645,6.05,7.328,35.27,0,109.9,13.43,6.82,275.5
"2010-01-06 00:21:30",1567047,15.41,314.1,2.711,0.67,11.18,102.6452,6.051,7.335,35.16,0,109.9,13.43,6.82,276.1
"2010-01-06 00:22:00",1567048,15.4,312,3.427,0.731,10.94,102.6452,6.051,7.327,35.3,0,109.9,13.43,6.82,274.0
"2010-01-06 00:22:30",1567049,15.25,310.3,3.515,0.723,10.92,102.6464,6.054,7.335,35.3,0,109.9,13.43,6.83,272.3
"2010-01-06 00:23:00",1567050,15.29,312.2,3.469,0.697,10.97,102.6469,6.056,7.32,35.26,0,109.9,13.43,6.83,274.2
"2010-01-06 00:23:30",1567051,15.65,313.9,2.712,0.691,11.16,102.6532,6.071,7.326,35.06,0,109.9,13.43,6.84,275.9
"2010-01-06 00:24:00",1567052,15.51,313.3,3.421,0.686,11.05,102.6591,6.087,7.333,35.05,0,109.9,13.43,6.86,275.3
"2010-01-06 00:24:30",1567053,15.44,314.5,3.8,0.66,11.05,102.6594,6.087,7.351,35,0,109.9,13.43,6.86,276.5
"2010-01-06 00:25:00",1567054,15.34,315.3,3.009,0.78,11.13,102.6605,6.09,7.35,34.96,0,109.9,13.43,6.86,277.3
"2010-01-06 00:25:30",1567055,15.03,315.4,2.537,0.628,11.4,102.6653,6.102,7.366,34.94,0,109.9,13.43,6.88,277.4
"2010-01-06 00:26:00",1567056,15.03,314.3,3.259,0.689,11.15,102.6724,6.12,7.354,34.92,0,109.9,13.43,6.89,276.3
"2010-01-06 00:26:30",1567057,15.28,314.6,3.042,0.811,11.2,102.6786,6.136,7.364,34.87,0,109.9,13.43,6.91,276.6
"2010-01-06 00:27:00",1567058,15.19,313.8,2.993,0.8,11.09,102.6789,6.137,7.376,34.89,0,109.9,13.43,6.91,275.8
"2010-01-06 00:27:30",1567059,15.27,313.2,3.361,0.506,11.18,102.6789,6.137,7.377,34.95,0,109.9,13.43,6.91,275.2
"2010-01-06 00:28:00",1567060,15.06,314.3,2.922,0.819,11.05,102.6789,6.137,7.393,34.96,0,110,13.42,6.91,276.3
"2010-01-06 00:28:30",1567061,15.29,315.6,3.479,0.654,11.07,102.6789,6.137,7.403,34.99,0,109.9,13.42,6.91,277.6
"2010-01-06 00:29:00",1567062,14.84,316,2.679,0.834,11.09,102.6814,6.144,7.421,35,0,109.9,13.42,6.92,278.0
"2010-01-06 00:29:30",1567063,15.19,314.5,2.751,0.677,11.02,102.6862,6.156,7.432,35.14,0,109.9,13.42,6.93,276.5
"2010-01-06 00:30:00",1567064,15.11,314,2.896,0.76,10.82,102.6955,6.18,7.42,35.22,0,109.9,13.43,6.95,276.0
"2010-01-06 00:30:30",1567065,15.55,314.5,3.084,0.756,10.88,102.7046,6.203,7.428,35.39,0,109.9,13.42,6.98,276.5
"2010-01-06 00:31:00",1567066,15.79,315.2,3.435,0.679,10.88,102.706,6.206,7.435,35.4,0,109.9,13.43,6.98,277.2
"2010-01-06 00:31:30",1567067,15.64,316.1,3.439,0.514,11.05,102.7077,6.211,7.44,35.38,0,109.9,13.43,6.98,278.1
"2010-01-06 00:32:00",1567068,15.57,318.2,3.334,0.78,10.92,102.708,6.211,7.451,35.36,0,109.9,13.43,6.99,280.2
"2010-01-06 00:32:30",1567069,15.6,319.9,3.971,0.574,11.2,102.7052,6.204,7.46,35.27,0,109.9,13.43,6.98,281.9
"2010-01-06 00:33:00",1567070,14.88,321.6,3.647,0.713,11.51,102.7057,6.206,7.455,35.06,0,109.9,13.43,6.98,283.6
"2010-01-06 00:33:30",1567071,15,321.4,1.957,0.829,11.57,102.7046,6.203,7.463,35,0,109.9,13.43,6.98,283.4
"2010-01-06 00:34:00",1567072,15.33,319.4,3.373,0.932,11.49,102.7083,6.212,7.48,34.97,0,109.9,13.43,6.99,281.4
"2010-01-06 00:34:30",1567073,15.46,319.4,3.035,0.848,11.37,102.7111,6.219,7.466,35.03,0,109.9,13.43,6.99,281.4
"2010-01-06 00:35:00",1567074,15.02,322.6,3.325,0.939,11.56,102.7117,6.221,7.465,34.97,0,109.9,13.43,6.99,284.6
"2010-01-06 00:35:30",1567075,14.74,323.3,3.519,0.65,11.64,102.7122,6.222,7.462,34.95,0,109.9,13.43,7.00,285.3
"2010-01-06 00:36:00",1567076,13.87,323.3,3.421,0.841,11.52,102.7128,6.224,7.47,34.94,0,109.9,13.43,7.00,285.3
"2010-01-06 00:36:30",1567077,14.15,320.3,3.384,0.791,11.4,102.7128,6.224,7.481,34.93,0,109.9,13.43,7.00,282.3
"2010-01-06 00:37:00",1567078,14.49,320,3.402,0.834,11.28,102.7128,6.224,7.482,34.93,0,109.9,13.43,7.00,282.0
"2010-01-06 00:37:30",1567079,14.09,320.2,3.007,0.69,11.36,102.7128,6.224,7.495,34.95,0,109.9,13.43,7.00,282.2
"2010-01-06 00:38:00",1567080,13.68,319.5,3.074,0.762,11.3,102.7128,6.224,7.491,34.95,0,109.9,13.43,7.00,281.5
"2010-01-06 00:38:30",1567081,13.73,319.7,2.905,0.974,11.19,102.7131,6.224,7.516,34.96,0,109.9,13.43,7.00,281.7
"2010-01-06 00:39:00",1567082,14.12,319.7,3.898,0.778,11.08,102.7201,6.242,7.515,34.98,0,109.9,13.43,7.02,281.7
"2010-01-06 00:39:30",1567083,14,325.2,3.585,0.669,11.28,102.7297,6.267,7.507,34.98,0,109.9,13.43,7.04,287.2
"2010-01-06 00:40:00",1567084,13.73,325.3,3.946,0.763,11.19,102.7365,6.284,7.533,34.92,0,109.9,13.43,7.06,287.3
"2010-01-06 00:40:30",1567085,13.87,323,2.787,0.842,11.1,102.7433,6.302,7.568,34.95,0,109.9,13.43,7.08,285.0
"2010-01-06 00:41:00",1567086,13.93,322.5,2.017,0.989,11.02,102.7464,6.31,7.551,34.93,0,109.9,13.43,7.08,284.5
"2010-01-06 00:41:30",1567087,13.73,322.2,3.56,0.589,11.36,102.7467,6.31,7.558,34.9,0,109.9,13.43,7.08,284.2
"2010-01-06 00:42:00",1567088,13.6,322,3.53,0.769,11.17,102.7467,6.31,7.568,34.8,0,109.9,13.43,7.08,284.0
"2010-01-06 00:42:30",1567089,13.47,321.2,3.244,0.764,11.14,102.7467,6.31,7.578,34.81,0,109.9,13.43,7.08,283.2
"2010-01-06 00:43:00",1567090,12.82,322.2,3.123,0.92,11.14,102.7467,6.31,7.575,34.76,0,109.9,13.43,7.08,284.2
"2010-01-06 00:43:30",1567091,13.31,321,2.966,0.896,11.26,102.7467,6.31,7.583,34.77,0,109.9,13.43,7.08,283.0
"2010-01-06 00:44:00",1567092,12.37,321.2,3.075,0.833,11.09,102.7467,6.31,7.592,34.75,0,109.9,13.43,7.08,283.2
"2010-01-06 00:44:30",1567093,12.76,321.3,3.014,0.931,11.01,102.7467,6.31,7.604,34.75,0,109.9,13.43,7.08,283.3
"2010-01-06 00:45:00",1567094,13.39,320.2,3.355,0.873,10.95,102.7467,6.31,7.598,34.8,0,109.9,13.43,7.08,282.2
"2010-01-06 00:45:30",1567095,13.36,320.2,2.853,0.71,11.02,102.7475,6.313,7.609,34.8,0,109.9,13.43,7.09,282.2
"2010-01-06 00:46:00",1567096,13.29,320.4,3.461,0.816,10.87,102.7523,6.325,7.609,34.8,0,109.9,13.43,7.10,282.4
"2010-01-06 00:46:30",1567097,13.14,319.7,2.874,0.795,10.96,102.7563,6.335,7.631,34.77,0,109.9,13.43,7.11,281.7
"2010-01-06 00:47:00",1567098,13.28,321.3,3.545,0.639,10.91,102.7617,6.349,7.618,34.79,0,109.9,13.43,7.12,283.3
"2010-01-06 00:47:30",1567099,12.76,320.8,2.851,0.734,11.15,102.7614,6.348,7.646,34.73,0,109.9,13.43,7.12,282.8
"2010-01-06 00:48:00",1567100,12.42,320.5,2.654,0.824,11.03,102.7631,6.352,7.643,34.64,0,109.9,13.43,7.13,282.5
"2010-01-06 00:48:30",1567101,11.74,319.7,3.085,0.88,11,102.7628,6.351,7.652,34.58,0,109.9,13.43,7.13,281.7
"2010-01-06 00:49:00",1567102,11.72,317,3.062,0.876,10.81,102.767,6.362,7.657,34.58,0,109.9,13.43,7.14,279.0
"2010-01-06 00:49:30",1567103,12.09,318.3,2.88,0.579,10.79,102.771,6.372,7.643,34.59,0,109.9,13.43,7.15,280.3
"2010-01-06 00:50:00",1567104,12.07,317.1,3.433,0.911,10.66,102.7735,6.379,7.639,34.57,0,109.9,13.43,7.15,279.1
"2010-01-06 00:50:30",1567105,12.24,317.3,1.964,0.871,10.55,102.7766,6.387,7.654,34.62,0,109.9,13.43,7.16,279.3
"2010-01-06 00:51:00",1567106,12.16,320.6,3.31,0.755,10.63,102.7789,6.393,7.633,34.49,0,109.9,13.43,7.17,282.6
"2010-01-06 00:51:30",1567107,10.51,309.4,4.001,0.791,7.115,102.7789,6.393,7.454,34.31,0,109.9,13.44,7.17,271.4
"2010-01-06 00:52:00",1567108,11.42,313.3,6.198,1.127,8.52,102.7798,6.395,7.499,34.39,0,109.9,13.44,7.17,275.3
"2010-01-06 00:52:30",1567109,11.03,315.3,7.906,1.024,9.33,102.7806,6.397,7.53,34.41,0,109.9,13.44,7.17,277.3
"2010-01-06 00:53:00",1567110,12.27,316.9,5.058,0.623,12.12,102.7806,6.397,7.662,34.51,0,109.9,13.44,7.17,278.9
"2010-01-06 00:53:30",1567111,11.98,319.7,3.267,0.852,11.98,102.7806,6.397,7.689,34.56,0,109.9,13.44,7.17,281.7
"2010-01-06 00:54:00",1567112,12.12,317.8,4.469,0.582,11.94,102.7806,6.397,7.677,34.49,0,109.9,13.44,7.17,279.8
"2010-01-06 00:54:30",1567113,12.2,316.5,4.949,0.937,11.35,102.7806,6.397,7.619,34.48,0,109.9,13.44,7.17,278.5
"2010-01-06 00:55:00",1567114,11.19,314.5,6.404,1.176,9.84,102.7806,6.397,7.558,34.38,0,109.9,13.44,7.17,276.5
"2010-01-06 00:55:30",1567115,11.7,309.2,7.192,1.127,8.96,102.7806,6.397,7.504,34.35,0,109.9,13.44,7.17,271.2
"2010-01-06 00:56:00",1567116,12.95,310.8,6.105,1.312,10.37,102.7806,6.397,7.64,34.66,0,109.9,13.44,7.17,272.8
"2010-01-06 00:56:30",1567117,13.87,311.4,5.425,1.062,11.3,102.7806,6.397,7.63,34.74,0,109.9,13.44,7.17,273.4
"2010-01-06 00:57:00",1567118,14.56,311.8,5.557,0.816,11.79,102.7806,6.397,7.691,34.98,0,109.9,13.44,7.17,273.8
"2010-01-06 00:57:30",1567119,14.62,312.3,3.197,0.738,11.84,102.7806,6.397,7.696,35.07,0,109.9,13.44,7.17,274.3
"2010-01-06 00:58:00",1567120,14.43,312.3,3.993,0.793,11.74,102.7806,6.397,7.716,34.84,0,109.9,13.44,7.17,274.3
"2010-01-06 00:58:30",1567121,14.15,313.2,3.887,0.616,11.62,102.7806,6.397,7.698,34.98,0,109.9,13.44,7.17,275.2
"2010-01-06 00:59:00",1567122,14.14,314.4,3.543,0.654,11.4,102.7806,6.397,7.688,34.88,0,109.9,13.44,7.17,276.4
"2010-01-06 00:59:30",1567123,14.57,313.5,3.89,0.758,11.18,102.7806,6.397,7.695,35.01,0,109.9,13.43,7.17,275.5
"2010-01-06 01:00:00",1567124,15.15,313.8,3.406,0.526,11,102.7806,6.397,7.705,35.13,0,109.9,13.43,7.17,275.8
"2010-01-06 01:00:30",1567125,14.53,314.6,2.652,0.82,11.15,102.7806,6.397,7.69,35.14,0,109.9,13.43,7.17,276.6
"2010-01-06 01:01:00",1567126,14.34,313.6,4.038,0.744,11.22,102.7806,6.397,7.704,35.1,0,109.9,13.43,7.17,275.6
"2010-01-06 01:01:30",1567127,15.42,312.4,3.57,0.693,11.22,102.7806,6.397,7.696,35.22,0,109.9,13.43,7.17,274.4
"2010-01-06 01:02:00",1567128,15.47,314.4,2.799,0.798,10.96,102.7806,6.397,7.69,35.26,0,109.9,13.43,7.17,276.4
"2010-01-06 01:02:30",1567129,15.32,314.2,2.957,0.88,10.99,102.7806,6.397,7.706,35.42,0,109.9,13.43,7.17,276.2
"2010-01-06 01:03:00",1567130,15.18,314.6,2.815,0.882,11.02,102.7803,6.396,7.697,35.51,0,109.9,13.43,7.17,276.6
"2010-01-06 01:03:30",1567131,15.28,314.8,2.768,0.747,11.3,102.7772,6.388,7.697,35.41,0,109.9,13.43,7.16,276.8
"2010-01-06 01:04:00",1567132,15.31,315.6,2.69,0.901,11.24,102.771,6.372,7.685,35.32,0,109.9,13.43,7.15,277.6
"2010-01-06 01:04:30",1567133,14.6,316.4,3.066,0.859,11.3,102.7653,6.358,7.682,35.16,0,109.9,13.44,7.13,278.4
"2010-01-06 01:05:00",1567134,14.23,315.1,3.103,0.882,11.25,102.7631,6.352,7.669,35.25,0,109.9,13.44,7.13,277.1
"2010-01-06 01:05:30",1567135,13.92,315.1,2.662,0.701,11.27,102.7614,6.348,7.657,35.17,0,109.9,13.44,7.12,277.1
"2010-01-06 01:06:00",1567136,14.27,315,4.093,0.868,11.16,102.7591,6.342,7.666,35.17,0,109.9,13.44,7.12,277.0
"2010-01-06 01:06:30",1567137,13.46,315.3,2.73,0.735,11.07,102.756,6.334,7.673,35.19,0,109.9,13.44,7.11,277.3
"2010-01-06 01:07:00",1567138,13.25,317.1,2.606,0.829,11.03,102.7526,6.326,7.646,35.1,0,109.9,13.44,7.10,279.1
"2010-01-06 01:07:30",1567139,13.1,317,3.44,0.749,11.2,102.7515,6.323,7.663,34.99,0,109.9,13.44,7.10,279.0
"2010-01-06 01:08:00",1567140,13.53,314.2,2.91,0.964,10.85,102.7506,6.32,7.665,35.16,0,109.9,13.44,7.09,276.2
"2010-01-06 01:08:30",1567141,13.77,312.4,3.522,0.86,10.7,102.7506,6.32,7.662,35.41,0,109.9,13.44,7.09,274.4
"2010-01-06 01:09:00",1567142,14.11,314.1,1.935,0.912,10.66,102.7492,6.317,7.627,35.56,0,109.9,13.44,7.09,276.1
"2010-01-06 01:09:30",1567143,13.93,314.4,3.378,0.525,10.91,102.7495,6.318,7.632,35.5,0,109.9,13.44,7.09,276.4
"2010-01-06 01:10:00",1567144,14.09,315.6,2.865,0.787,10.8,102.7473,6.312,7.639,35.53,0,109.9,13.44,7.09,277.6
"2010-01-06 01:10:30",1567145,13.92,315.1,3.562,0.726,10.91,102.747,6.311,7.654,35.53,0,109.9,13.44,7.09,277.1
"2010-01-06 01:11:00",1567146,13.54,315.2,2.8,0.791,10.7,102.747,6.311,7.642,35.56,0,109.9,13.44,7.09,277.2
"2010-01-06 01:11:30",1567147,14.02,314.9,3.75,0.577,10.99,102.7467,6.31,7.665,35.57,0,109.9,13.44,7.08,276.9
"2010-01-06 01:12:00",1567148,13.83,313.3,3.607,0.67,10.74,102.7467,6.31,7.652,35.6,0,109.9,13.44,7.08,275.3
"2010-01-06 01:12:30",1567149,13.6,314.3,3.403,0.779,10.76,102.7467,6.31,7.643,35.63,0,109.9,13.44,7.08,276.3
"2010-01-06 01:13:00",1567150,13.66,314.8,3.84,0.773,10.66,102.7467,6.31,7.633,35.71,0,109.9,13.44,7.08,276.8
"2010-01-06 01:13:30",1567151,13.83,312.9,1.656,0.842,10.7,102.7467,6.31,7.648,35.86,0,109.9,13.44,7.08,274.9
"2010-01-06 01:14:00",1567152,14.19,310.7,2.419,0.851,10.64,102.7467,6.31,7.627,36.2,0,109.9,13.44,7.08,272.7
"2010-01-06 01:14:30",1567153,14.66,310,3.032,0.782,10.64,102.7467,6.31,7.627,36.28,0,109.9,13.44,7.08,272.0
"2010-01-06 01:15:00",1567154,14.45,311.5,3.091,0.766,10.61,102.7467,6.31,7.632,36.34,0,109.9,13.44,7.08,273.5
"2010-01-06 01:15:30",1567155,14.19,311.1,3.135,0.701,10.93,102.7467,6.31,7.637,36.36,0,109.9,13.43,7.08,273.1
"2010-01-06 01:16:00",1567156,13.7,310.9,2.794,0.802,10.76,102.7467,6.31,7.633,36.16,0,110,13.43,7.08,272.9
"2010-01-06 01:16:30",1567157,14.19,310.3,3.247,0.757,10.81,102.7467,6.31,7.606,36.06,0,109.9,13.43,7.08,272.3
"2010-01-06 01:17:00",1567158,14.51,309.9,2.52,0.851,10.7,102.7453,6.307,7.617,36.37,0,109.9,13.43,7.08,271.9
"2010-01-06 01:17:30",1567159,14.85,310.4,3.348,0.754,10.89,102.7402,6.294,7.605,36.45,0,109.9,13.43,7.07,272.4
"2010-01-06 01:18:00",1567160,14.71,311.9,2.848,0.759,10.88,102.7326,6.274,7.588,36.38,0,109.9,13.43,7.05,273.9
"2010-01-06 01:18:30",1567161,14.63,311,4.533,0.652,10.93,102.7295,6.266,7.599,36.27,0,109.9,13.43,7.04,273.0
"2010-01-06 01:19:00",1567162,15.13,311.6,2.61,0.843,10.95,102.7258,6.257,7.607,36.24,0,109.9,13.43,7.03,273.6
"2010-01-06 01:19:30",1567163,14.55,314.3,2.895,0.818,11.16,102.7198,6.242,7.594,36.16,0,109.9,13.43,7.02,276.3
"2010-01-06 01:20:00",1567164,14.4,313.3,3.167,0.873,10.99,102.7173,6.235,7.586,36.09,0,109.9,13.43,7.01,275.3
"2010-01-06 01:20:30",1567165,14.43,313.1,3.144,0.866,10.98,102.7148,6.229,7.584,36.14,0,109.9,13.43,7.00,275.1
"2010-01-06 01:21:00",1567166,14.5,313.9,3.791,0.747,10.99,102.7162,6.232,7.574,36.12,0,109.9,13.44,7.01,275.9
"2010-01-06 01:21:30",1567167,14.22,314.7,3.419,0.635,11.14,102.7145,6.228,7.577,36.08,0,109.9,13.44,7.00,276.7
"2010-01-06 01:22:00",1567168,13.87,313.8,2.887,0.75,10.9,102.7136,6.226,7.56,36.08,0,109.9,13.44,7.00,275.8
"2010-01-06 01:22:30",1567169,13.3,311.9,3.239,0.863,10.91,102.7128,6.224,7.566,36.13,0,109.9,13.44,7.00,273.9
"2010-01-06 01:23:00",1567170,13.23,310,3.221,0.776,10.82,102.7136,6.226,7.575,36.17,0,109.9,13.44,7.00,272.0
"2010-01-06 01:23:30",1567171,13.41,308.7,3.394,0.643,10.64,102.7128,6.224,7.568,36.48,0,109.9,13.44,7.00,270.7
"2010-01-06 01:24:00",1567172,13.26,305.8,6.125,1.023,9.84,102.7131,6.224,7.573,36.65,0,109.9,13.44,7.00,267.8
"2010-01-06 01:24:30",1567173,13.58,306.3,5.423,0.835,10.32,102.7128,6.224,7.562,36.57,0,109.9,13.44,7.00,268.3
"2010-01-06 01:25:00",1567174,13.35,305.2,5.468,1.212,9.28,102.7128,6.224,7.444,36.58,0,109.9,13.44,7.00,267.2
"2010-01-06 01:25:30",1567175,13.52,310.2,4.959,0.991,10.68,102.7128,6.224,7.551,36.58,0,109.9,13.45,7.00,272.2
"2010-01-06 01:26:00",1567176,13.92,311.8,4.403,0.492,11.05,102.7128,6.224,7.546,36.49,0,109.9,13.45,7.00,273.8
"2010-01-06 01:26:30",1567177,13.63,313.4,3.379,0.776,10.91,102.7128,6.224,7.569,36.53,0,109.9,13.44,7.00,275.4
"2010-01-06 01:27:00",1567178,13.71,314.3,3.803,0.787,11.11,102.7128,6.224,7.562,36.53,0,109.9,13.44,7.00,276.3
"2010-01-06 01:27:30",1567179,14.09,317.9,3.801,0.512,11.34,102.7128,6.224,7.559,36.37,0,109.9,13.44,7.00,279.9
"2010-01-06 01:28:00",1567180,13.78,316.9,3.736,0.764,10.94,102.7128,6.224,7.537,36.35,0,109.9,13.44,7.00,278.9
"2010-01-06 01:28:30",1567181,13.3,315.7,3.7,0.876,10.96,102.7128,6.224,7.56,36.38,0,109.9,13.45,7.00,277.7
"2010-01-06 01:29:00",1567182,12.95,314.6,3.035,0.918,10.82,102.7128,6.224,7.527,36.37,0,109.9,13.45,7.00,276.6
"2010-01-06 01:29:30",1567183,12.94,315.2,2.236,0.75,10.83,102.7128,6.224,7.528,36.37,0,109.9,13.45,7.00,277.2
"2010-01-06 01:30:00",1567184,12.89,313.6,2.974,0.929,10.66,102.7128,6.224,7.539,36.44,0,109.9,13.45,7.00,275.6
"2010-01-06 01:30:30",1567185,13.25,311.2,3.854,0.706,10.49,102.7128,6.224,7.521,36.49,0,109.9,13.45,7.00,273.2
"2010-01-06 01:31:00",1567186,13.5,313.8,3.653,0.717,10.56,102.7128,6.224,7.527,36.5,0,109.9,13.45,7.00,275.8
"2010-01-06 01:31:30",1567187,13.53,312.8,3.535,0.565,10.64,102.7128,6.224,7.521,36.52,0,109.9,13.45,7.00,274.8
"2010-01-06 01:32:00",1567188,13.27,311.8,4.032,0.755,10.5,102.7128,6.224,7.533,36.6,0,109.9,13.44,7.00,273.8
"2010-01-06 01:32:30",1567189,12.94,310.4,2.89,0.776,10.37,102.7128,6.224,7.509,36.69,0,109.9,13.44,7.00,272.4
"2010-01-06 01:33:00",1567190,12.44,306,5.961,1.22,8.95,102.7125,6.223,7.419,36.63,0,109.9,13.43,7.00,268.0
"2010-01-06 01:33:30",1567191,12.61,308.2,5.686,1.22,9.75,102.7111,6.219,7.428,36.57,0,109.9,13.43,6.99,270.2
"2010-01-06 01:34:00",1567192,12.69,306.2,6.04,1.251,9.07,102.7068,6.209,7.37,36.6,0,109.9,13.44,6.98,268.2
"2010-01-06 01:34:30",1567193,13.87,308.5,4.929,1.082,10.35,102.6995,6.19,7.437,36.81,0,109.9,13.44,6.96,270.5
"2010-01-06 01:35:00",1567194,14.06,309.2,4.458,0.907,10.93,102.6916,6.17,7.479,36.94,0,109.9,13.44,6.94,271.2
"2010-01-06 01:35:30",1567195,13.83,311.2,4.115,0.799,11.33,102.6808,6.142,7.515,37.04,0,109.9,13.44,6.92,273.2
"2010-01-06 01:36:00",1567196,13.6,312.7,2.599,0.703,11.41,102.6792,6.138,7.521,36.9,0,109.9,13.44,6.91,274.7
"2010-01-06 01:36:30",1567197,13.95,312.8,3.718,0.901,11.52,102.6789,6.137,7.5,36.8,0,109.9,13.44,6.91,274.8
"2010-01-06 01:37:00",1567198,13.84,312.2,3.735,0.65,10.96,102.6789,6.137,7.493,36.82,0,109.9,13.45,6.91,274.2
"2010-01-06 01:37:30",1567199,13.75,316.5,3.089,0.692,11.21,102.6789,6.137,7.507,36.59,0,109.9,13.45,6.91,278.5
"2010-01-06 01:38:00",1567200,13.22,316.3,3.328,0.881,10.93,102.6789,6.137,7.487,36.42,0,109.9,13.45,6.91,278.3
"2010-01-06 01:38:30",1567201,13.31,317.9,3.334,0.885,10.91,102.6789,6.137,7.481,36.39,0,109.9,13.45,6.91,279.9
"2010-01-06 01:39:00",1567202,12.94,317.8,3.179,0.735,10.68,102.6789,6.137,7.466,36.47,0,109.9,13.45,6.91,279.8
"2010-01-06 01:39:30",1567203,13.02,315.3,2.89,0.702,10.78,102.6789,6.137,7.463,36.65,0,109.9,13.45,6.91,277.3
"2010-01-06 01:40:00",1567204,13.22,310.7,3.308,0.854,10.37,102.6786,6.136,7.451,37.03,0,109.9,13.45,6.91,272.7
"2010-01-06 01:40:30",1567205,13.6,311.9,3.356,0.877,10.34,102.6775,6.133,7.46,37.26,0,109.9,13.45,6.91,273.9
"2010-01-06 01:41:00",1567206,13.8,311.4,2.897,0.895,10.32,102.6721,6.12,7.448,37.43,0,109.9,13.45,6.89,273.4
"2010-01-06 01:41:30",1567207,13.49,314.3,2.403,0.74,10.63,102.6659,6.104,7.434,37.23,0,109.9,13.45,6.88,276.3
"2010-01-06 01:42:00",1567208,13.71,312.2,2.819,0.722,10.45,102.6614,6.092,7.435,37.15,0,109.9,13.45,6.87,274.2
"2010-01-06 01:42:30",1567209,13.75,312.9,3.681,0.644,10.44,102.6588,6.086,7.437,37.25,0,109.9,13.45,6.86,274.9
"2010-01-06 01:43:00",1567210,13.72,313.7,3.278,0.772,10.46,102.6517,6.068,7.418,37.34,0,109.9,13.45,6.84,275.7
"2010-01-06 01:43:30",1567211,13.86,315,2.007,0.789,10.59,102.6461,6.053,7.411,37.38,0,109.9,13.45,6.83,277.0
"2010-01-06 01:44:00",1567212,13.77,314.1,4.543,0.818,10.61,102.645,6.05,7.407,37.42,0,109.9,13.45,6.82,276.1
"2010-01-06 01:44:30",1567213,13.97,315.1,3.987,0.802,10.63,102.645,6.05,7.393,37.25,0,109.9,13.45,6.82,277.1
"2010-01-06 01:45:00",1567214,13.97,315.7,3.318,0.904,10.54,102.645,6.05,7.387,37.49,0,109.9,13.45,6.82,277.7
"2010-01-06 01:45:30",1567215,13.97,314,2.814,0.676,10.85,102.645,6.05,7.393,37.34,0,109.9,13.45,6.82,276.0
"2010-01-06 01:46:00",1567216,13.56,314.5,2.411,0.909,10.65,102.6424,6.044,7.392,37.14,0,109.9,13.45,6.82,276.5
"2010-01-06 01:46:30",1567217,13.11,314.2,2.989,0.953,10.74,102.6393,6.036,7.381,37.18,0,109.9,13.45,6.81,276.2
"2010-01-06 01:47:00",1567218,13.4,314.3,3.768,0.809,10.69,102.6351,6.025,7.368,37.02,0,109.9,13.45,6.80,276.3
"2010-01-06 01:47:30",1567219,13.9,314.4,3.66,0.671,10.86,102.6297,6.011,7.364,37.18,0,109.9,13.45,6.78,276.4